Weather History for Carlsbad, NM

Change the Weather History Date:

Sunday, April 27, 2014

  Actual Average Record
Temperature  
Mean Temperature 66 °F -  
Max Temperature 75 °F 81 °F 98 °F (1978)
Min Temperature 57 °F 50 °F 34 °F (1973)
Cooling Degree Days 1    
Growing Degree Days 16 (Base 50)    
Moisture  
Dew Point 20 °F    
Average Humidity 17    
Maximum Humidity 28    
Minimum Humidity 9    
Precipitation  
Precipitation 0.00 in - - ()
Sea Level Pressure  
Sea Level Pressure 29.55 in    
Wind  
Wind Speed 24 mph (West)    
Max Wind Speed 37 mph    
Max Gust Speed 48 mph    
Visibility 10 miles    
Events Rain    
Averages and records for this station are not official NWS values.
T = Trace of Precipitation, MM = Missing Value Source: NWS Daily Summary

Daily Weather History Graph

Daily Weather History Graph

Search for Another Location

Airport:

Trip Planner

Search our weather history database for the weather conditions in past years. The results will help you decide how hot, cold, wet, or windy it might be!

Date:

Astronomy

Apr. 27, 2014 Rise Set
Actual Time 6:14 AM MDT 7:35 PM MDT
Civil Twilight 5:48 AM MDT 8:01 PM MDT
Nautical Twilight 5:17 AM MDT 8:32 PM MDT
Astronomical Twilight 4:45 AM MDT 9:04 PM MDT
Moon 5:09 AM MDT (4/27) 6:16 PM MDT (4/27)
Length of Visible Light 14h 12m
Length of Day
13h 20m
Waning Crescent, 3% of the Moon is Illuminated
Apr 27
Waning Crescent
Apr 29
New
May 6
First Quarter
May 14
Full
May 21
Last Quarter

Hourly Weather History & Observations

Time (MDT) Temp. Dew Point Humidity Pressure Visibility Wind Dir Wind Speed Gust Speed Precip Events Conditions
12:53 AM 66.9 °F 30.9 °F 26% 29.49 in 10.0 mi West 26.5 mph 36.8 mph 0.00 in   Clear
1:53 AM 64.9 °F 28.9 °F 26% 29.52 in 10.0 mi West 15.0 mph - N/A   Clear
2:53 AM 63.0 °F 28.0 °F 27% 29.52 in 10.0 mi West 12.7 mph 17.3 mph N/A   Clear
3:53 AM 62.1 °F 27.0 °F 26% 29.51 in 10.0 mi West 12.7 mph 20.7 mph N/A   Clear
4:53 AM 60.1 °F 19.9 °F 21% 29.54 in 10.0 mi West 23.0 mph 31.1 mph N/A   Clear
5:53 AM 57.9 °F 24.1 °F 27% 29.53 in 10.0 mi West 20.7 mph 27.6 mph N/A   Clear
6:53 AM 57.0 °F 24.1 °F 28% 29.56 in 10.0 mi West 15.0 mph - N/A   Clear
7:53 AM 60.1 °F 21.0 °F 22% 29.54 in 10.0 mi West 26.5 mph 35.7 mph N/A   Clear
8:53 AM 64.0 °F 18.0 °F 17% 29.55 in 10.0 mi West 32.2 mph 40.3 mph 0.00 in Rain Light Rain
9:53 AM 66.2 °F 17.6 °F 15% 29.70 in 10.0 mi West 28.8 mph 40.3 mph N/A Rain Light Rain
10:53 AM 69.1 °F 16.0 °F 13% 29.55 in 10.0 mi West 35.7 mph 46.0 mph 0.00 in Rain Light Rain
11:53 AM 73.0 °F 15.1 °F 11% 29.52 in 10.0 mi West 29.9 mph 43.7 mph 0.00 in   Unknown
12:53 PM 73.9 °F 12.0 °F 9% 29.52 in 10.0 mi West 32.2 mph 46.0 mph 0.00 in Rain Light Rain
1:53 PM 75.2 °F 15.8 °F 11% 29.64 in 10.0 mi West 33.4 mph 44.9 mph N/A   Clear
2:53 PM 75.2 °F 17.6 °F 11% 29.63 in 10.0 mi West 36.8 mph 48.3 mph N/A Rain Light Rain
3:53 PM 75.9 °F 17.1 °F 11% 29.47 in 10.0 mi West 28.8 mph 42.6 mph 0.00 in   Clear
4:53 PM 75.9 °F 17.1 °F 11% 29.46 in 10.0 mi West 35.7 mph 42.6 mph 0.00 in   Clear
5:53 PM 75.0 °F 16.0 °F 11% 29.48 in 10.0 mi West 29.9 mph 44.9 mph 0.00 in Rain Light Rain
6:53 PM 73.0 °F 17.1 °F 12% 29.49 in 10.0 mi WSW 28.8 mph 39.1 mph 0.00 in Rain Light Rain
7:53 PM 70.0 °F 17.1 °F 13% 29.52 in 10.0 mi West 26.5 mph 35.7 mph 0.00 in   Clear
8:53 PM 69.1 °F 17.1 °F 14% 29.54 in 10.0 mi West 18.4 mph - N/A   Clear
9:53 PM 69.1 °F 17.1 °F 14% 29.57 in 10.0 mi West 20.7 mph 29.9 mph N/A   Clear
10:53 PM 66.9 °F 18.0 °F 15% 29.59 in 10.0 mi West 19.6 mph - N/A   Clear
11:53 PM 66.2 °F 19.4 °F 17% 29.74 in 10.0 mi West 16.1 mph - N/A   Clear